Temperature
16 16 17 17 20 21 21 20 20 20 20 18 18 19 20 19 19 18 14 14 14 14 14 14 14 14 14 14 14 14 14 15 15 15 15 15 15 15 15 15 15 15 15 15 15 15 15 15 15
16 16 17 18 21 21 21 20 19 19 18 17 17 17 18 17 15 14 14 14 14 14 14 14 14 14 14 14 14 14 14 14 14 14 14 14 14 14 14 14 15 14 14 14 14 14 15 15 15
16 16 17 20 20 21 20 19 19 18 16 16 17 16 16 15 13 13 13 14 14 14 14 14 14 14 14 14 14 14 14 14 14 14 14 14 14 14 14 14 14 14 14 14 14 14 14 15 15
16 16 18 20 19 19 19 19 18 18 17 16 17 16 14 12 12 12 13 13 13 13 13 13 13 14 14 14 14 14 14 14 14 14 14 14 14 14 14 14 14 14 14 14 14 14 14 14 15
16 17 19 19 18 18 18 17 16 18 17 16 16 16 14 12 12 12 13 13 13 13 13 13 13 13 13 13 13 13 13 13 13 13 14 14 14 14 14 14 14 14 14 14 14 14 14 14 14
16 18 19 19 18 18 17 15 16 17 16 15 15 16 13 11 12 12 12 13 13 13 13 13 13 13 13 13 13 13 13 13 13 13 13 13 13 13 14 13 13 14 14 14 14 14 14 14 14
17 18 18 18 18 17 16 15 15 16 15 14 13 15 13 11 11 12 12 12 12 12 12 12 12 12 12 12 12 12 12 12 13 13 13 13 13 13 13 13 13 13 13 13 13 14 14 14 14
15 17 17 17 17 16 15 14 13 14 14 11 11 13 12 9 11 11 11 12 12 12 12 12 12 12 12 12 12 12 12 12 12 12 13 13 13 13 13 13 13 13 13 13 13 13 13 13 13
14 17 17 16 16 15 14 14 12 11 11 10 9 9 9 9 10 11 11 11 11 12 11 12 11 11 11 11 11 11 11 12 12 12 12 12 12 12 12 12 12 12 12 13 13 13 13 13 13
14 16 15 14 14 14 12 12 12 12 11 10 9 8 8 9 9 10 10 10 10 11 11 11 11 11 11 11 11 11 11 11 11 11 12 12 12 12 12 12 12 12 12 12 12 12 12 12 12
13 14 13 12 12 12 11 10 10 11 11 10 9 8 8 8 9 9 9 9 9 10 10 10 10 10 10 11 11 11 11 11 11 11 11 11 11 11 11 12 11 11 12 12 12 12 12 12 12
12 11 11 11 10 10 10 10 9 9 9 8 7 7 7 7 7 8 8 8 9 9 9 10 10 10 10 10 10 10 10 10 10 11 11 11 11 11 11 11 11 11 11 11 11 11 11 11 11
12 11 9 9 8 8 8 8 8 7 7 7 7 7 6 6 6 7 7 7 8 9 9 9 9 9 10 10 10 10 10 10 10 10 10 11 10 10 10 10 11 11 11 11 11 11 11 11 11
11 10 9 9 9 8 8 8 8 7 6 6 6 5 5 5 5 6 6 7 7 8 8 8 8 9 9 9 9 9 10 10 10 10 10 10 10 10 10 10 10 10 10 10 10 10 11 11 11
9 10 10 9 9 8 9 9 7 6 5 5 5 4 4 4 4 5 5 6 6 7 7 8 8 8 8 8 9 9 9 9 9 9 9 9 10 10 10 10 10 10 10 10 10 10 10 10 10
11 12 12 10 9 8 10 9 7 5 5 5 4 4 3 3 3 4 5 5 6 6 7 7 7 7 8 8 8 8 8 8 9 9 9 9 9 9 9 9 9 9 9 9 10 10 10 10 10
12 12 12 10 8 8 9 8 6 4 4 4 4 3 3 3 3 3 4 4 5 5 6 6 7 7 7 7 7 7 7 8 8 8 8 8 8 8 8 8 9 9 9 9 9 9 9 9 10
11 11 10 10 8 8 8 7 6 4 4 4 3 3 3 2 2 2 3 4 4 5 5 6 6 6 6 6 6 7 7 7 7 7 7 7 8 8 8 8 8 8 8 8 9 9 9 9 9
10 10 10 9 7 7 7 6 6 5 4 3 3 3 2 2 2 2 2 3 4 4 5 5 5 5 5 5 6 6 6 7 7 7 7 7 7 7 7 7 7 8 8 8 8 8 8 8 9
9 9 9 8 7 6 6 6 5 4 3 2 2 2 1 1 1 1 2 2 3 3 4 4 4 5 5 5 5 5 5 6 6 6 6 6 6 6 7 7 7 7 7 7 7 8 8 8 8
8 8 8 7 6 6 6 6 5 4 3 2 1 1 0 0 0 0 1 1 2 2 3 3 3 4 4 4 4 4 4 5 5 5 5 5 6 6 6 6 6 6 6 7 7 7 7 7 8
8 7 6 6 7 8 7 8 7 5 3 2 1 1 0 -0 -0 -0 -0 0 1 1 2 2 2 3 3 3 3 3 3 4 4 4 4 5 5 5 5 5 5 6 6 6 6 6 6 7 7
7 6 6 6 6 7 6 7 8 4 3 3 1 0 -1 -1 -1 -1 -1 -0 -0 0 1 1 2 2 2 2 3 3 3 3 3 3 4 4 4 4 4 5 5 5 5 5 5 6 6 6 6
5 6 6 6 6 6 6 7 7 5 3 3 1 -0 -1 -1 -1 -1 -1 -1 -0 0 0 1 1 1 2 2 2 2 2 2 2 2 3 3 3 4 4 4 4 4 4 5 5 5 5 5 6
6 7 7 7 7 8 5 6 6 3 2 2 1 -1 -1 -1 -2 -2 -2 -2 -1 -1 -0 -0 0 1 1 1 1 1 1 1 1 2 2 2 3 3 3 3 3 4 4 4 4 4 5 5 5
5 6 7 7 8 8 5 5 5 2 1 -0 -1 -1 -2 -2 -2 -2 -2 -2 -2 -2 -1 -1 -1 -0 -0 0 1 1 1 1 1 1 1 1 2 2 2 3 3 3 3 3 4 4 4 4 5
5 5 4 5 5 5 6 5 3 1 1 -0 -1 -1 -2 -2 -2 -3 -3 -3 -3 -2 -2 -2 -1 -1 -1 -1 -0 -0 -0 0 0 0 1 1 1 1 2 2 2 2 3 3 3 3 4 4 4
4 4 4 4 5 6 6 6 5 2 1 0 -1 -1 -2 -3 -3 -3 -3 -3 -3 -3 -3 -2 -2 -2 -2 -1 -1 -1 -1 -1 -0 -0 0 0 1 1 1 1 2 2 2 2 2 3 3 3 3
3 3 3 4 4 4 5 6 3 2 1 -0 -1 -2 -3 -3 -3 -4 -4 -3 -3 -3 -3 -3 -2 -2 -2 -2 -2 -2 -1 -1 -1 -1 -0 -0 0 0 1 1 1 1 1 2 2 2 2 2 3
2 3 3 3 3 3 4 4 1 0 -1 -1 -2 -2 -3 -3 -4 -4 -4 -4 -4 -3 -3 -3 -3 -3 -3 -2 -2 -2 -2 -2 -2 -1 -1 -1 -0 0 0 0 0 1 1 1 1 1 2 2 2
Wind_Speed
3 2 2 2 3 3 3 2 1 2 1 1 2 1 2 2 2 3 4 3 2 4 5 6 6 7 7 7 7 7 7 7 7 7 7 7 7 7 7 8 8 8 8 9 9 10 10 11 11
2 2 2 2 4 5 3 2 3 1 2 2 2 2 2 3 4 4 3 3 2 4 5 5 6 6 6 6 7 6 6 6 6 6 7 7 6 6 6 7 7 7 8 8 8 9 9 10 10
0 1 1 2 3 3 3 2 2 2 2 1 2 2 2 3 4 4 5 2 3 5 5 6 7 6 6 6 6 5 5 5 5 6 6 6 6 6 6 6 6 7 7 7 7 8 8 9 9
2 2 1 3 4 1 1 2 2 3 3 2 2 3 3 5 5 5 4 3 4 5 5 7 7 7 6 6 5 5 5 5 5 5 5 6 6 6 6 6 6 6 6 6 7 7 7 8 8
0 2 3 4 3 2 1 1 1 1 2 2 1 2 3 5 8 6 4 4 4 5 6 6 7 7 6 5 5 5 4 4 5 4 5 5 5 5 5 5 5 5 5 6 7 7 7 7 7
2 2 4 5 5 3 1 1 0 1 2 3 2 2 3 6 8 6 4 4 5 5 6 6 6 6 6 6 5 5 5 5 4 5 5 5 5 5 5 5 5 5 5 6 6 6 6 6 7
2 2 3 4 4 3 0 1 1 0 2 3 3 1 2 6 8 5 5 6 6 7 6 5 5 5 5 5 5 5 5 5 5 4 5 5 5 4 4 4 4 4 5 5 5 6 6 6 6
0 2 3 4 5 2 1 2 2 3 2 4 3 2 2 6 5 4 5 6 7 7 6 6 6 4 3 3 5 5 5 4 4 5 6 5 5 5 4 4 4 4 5 5 5 5 5 6 6
1 3 4 4 3 2 2 2 2 2 4 4 5 5 5 4 4 5 6 6 6 6 6 6 6 5 4 3 4 4 5 5 5 5 5 4 3 3 3 4 4 4 4 4 4 5 5 6 6
1 3 3 0 1 2 4 3 2 2 3 3 5 7 7 6 5 6 5 5 5 5 6 6 6 5 5 4 3 3 3 4 3 2 2 1 2 2 3 4 4 3 4 4 4 4 5 5 5
1 1 2 2 3 3 3 3 4 1 2 3 4 6 7 7 7 6 6 5 4 4 5 6 6 5 4 3 3 2 3 3 3 3 3 2 2 2 2 1 2 2 3 3 4 4 4 4 4
3 3 2 2 3 2 2 1 3 4 3 5 5 6 6 7 6 6 5 6 6 6 6 6 6 5 4 3 3 2 2 2 2 3 3 2 2 1 1 0 0 1 1 2 2 2 3 3 4
2 2 3 4 5 5 5 3 2 4 3 5 6 7 7 6 6 6 7 6 6 6 7 7 6 5 4 3 3 3 3 2 2 2 3 3 1 1 1 1 1 1 1 2 2 3 3 3 3
4 5 3 2 2 1 3 2 1 3 3 4 5 6 6 7 7 8 8 9 8 7 7 6 6 6 5 4 3 3 2 2 2 2 3 3 2 1 1 1 1 1 2 2 3 3 3 3 2
5 3 2 2 1 1 2 2 1 2 2 3 5 5 6 7 8 8 8 8 8 7 7 7 6 6 5 4 3 3 3 3 2 2 3 3 3 3 2 1 1 1 2 2 2 3 3 3 3
2 2 1 2 2 1 3 3 3 3 2 3 4 5 6 7 7 7 8 8 8 8 8 8 7 6 6 5 4 3 3 3 3 3 3 4 4 4 2 1 1 2 2 2 2 2 3 3 3
2 2 3 1 2 1 2 2 2 3 3 3 4 5 5 7 8 8 8 8 8 8 8 8 8 7 7 5 4 4 3 3 3 3 3 4 4 4 3 2 2 2 2 2 2 3 3 4 3
2 3 3 3 2 1 1 3 2 2 3 3 3 4 5 7 8 8 8 8 8 8 8 7 8 8 7 5 4 3 3 3 3 3 4 4 4 4 3 2 3 2 2 2 2 3 3 3 3
1 3 5 4 1 2 3 4 4 2 2 2 3 4 5 6 7 8 8 8 8 9 9 8 8 8 7 5 4 4 3 3 3 3 4 4 4 4 3 2 3 3 3 3 3 3 4 3 3
2 4 6 3 1 2 4 5 3 1 1 2 3 4 6 7 8 9 9 9 9 9 9 8 8 7 6 5 5 4 4 3 3 3 4 4 5 5 4 3 3 3 3 4 4 3 3 3 4
2 4 5 5 4 3 4 5 3 1 2 3 4 4 6 7 7 8 9 9 9 9 10 8 8 7 7 7 5 5 3 3 3 4 3 4 5 5 4 4 4 3 3 4 4 5 5 4 4
3 2 4 5 5 4 4 5 3 3 1 3 4 5 6 6 7 7 8 9 9 9 9 9 8 7 7 6 5 6 4 4 5 4 4 5 5 5 5 5 4 4 3 4 5 5 5 5 5
3 4 4 5 5 6 5 6 3 3 2 2 3 5 6 6 7 7 8 8 9 9 9 9 9 8 8 7 6 6 6 5 5 5 5 5 4 5 5 5 4 4 4 5 5 5 5 5 5
3 3 3 3 4 6 5 6 4 2 2 2 2 4 6 6 7 7 7 8 8 9 9 9 9 8 8 8 7 7 7 7 7 6 6 5 4 4 5 5 5 5 4 5 5 6 6 6 6
3 3 3 3 4 5 2 5 3 2 1 0 2 4 5 6 6 7 8 8 9 10 10 9 10 9 8 8 8 8 8 7 7 7 6 6 5 5 6 5 6 5 5 5 5 5 6 6 7
2 3 3 4 5 5 3 5 1 3 2 1 2 3 5 6 7 7 8 8 8 9 10 10 10 9 9 9 9 8 8 6 6 7 6 6 6 6 7 7 6 7 6 6 5 5 6 5 6
1 1 2 3 5 6 5 3 2 2 1 2 4 5 6 7 7 8 8 8 8 8 9 9 9 9 9 9 9 8 8 8 8 8 7 6 6 6 7 7 7 7 7 6 6 5 6 6 6
2 1 2 2 4 6 6 6 3 2 2 3 5 6 7 8 8 8 7 8 8 8 8 9 9 9 9 9 8 7 8 8 8 7 7 7 7 7 8 7 7 7 7 7 6 6 6 7 6
1 1 2 3 4 5 7 4 2 1 2 3 5 7 7 8 7 7 7 7 8 8 8 9 9 9 9 9 9 9 8 8 8 8 8 8 8 8 8 7 7 7 7 7 7 7 7 8 7
2 3 3 4 5 6 7 5 3 0 2 4 6 7 7 8 7 7 7 7 8 9 9 9 9 9 9 9 9 9 9 8 8 9 9 8 8 8 8 7 7 7 7 7 8 8 8 8 8
Wind_Direction
346 312 257 236 207 197 198 176 169 129 116 60 58 93 93 54 10 57 33 32 62 123 132 137 127 125 119 118 115 109 110 116 117 113 112 113 110 105 101 97 94 94 94 95 95 93 94 97 96
331 287 229 223 219 203 181 173 174 91 68 92 91 85 79 60 31 41 29 30 74 113 118 116 104 114 113 108 105 104 111 116 119 119 120 120 115 112 105 100 93 91 90 92 95 95 95 97 97
307 304 222 195 208 215 165 125 121 89 80 77 89 62 47 35 27 18 8 26 93 98 98 94 85 93 96 97 104 105 106 113 116 118 121 118 116 114 112 104 99 95 94 96 97 97 97 99 100
245 186 185 203 183 198 176 94 91 124 102 50 86 99 91 39 7 3 17 53 94 87 84 83 73 80 85 87 90 97 105 108 112 114 118 119 117 116 112 105 104 102 98 102 107 106 104 103 104
251 208 188 191 199 176 96 36 83 126 104 60 67 102 91 40 19 26 46 61 79 75 67 76 67 69 72 78 85 88 90 99 101 104 107 110 114 117 117 111 107 106 106 112 117 115 110 108 109
172 203 204 204 193 178 115 18 176 106 79 57 39 99 96 40 22 24 50 62 65 65 60 64 61 61 64 66 66 70 78 82 87 88 89 90 95 107 117 113 109 109 113 123 123 120 117 111 108
207 192 205 195 190 191 145 72 44 87 76 40 358 56 92 25 14 26 53 56 54 50 48 47 55 59 61 61 62 61 68 74 77 79 79 80 87 91 104 113 108 106 113 125 128 126 122 118 116
259 167 180 196 200 204 74 100 52 32 61 41 27 25 36 355 8 43 56 52 47 41 39 32 30 31 45 64 64 62 66 71 72 75 77 81 91 93 93 105 108 106 107 114 130 132 127 125 125
234 198 205 206 201 171 86 110 64 62 78 61 42 29 14 15 36 53 49 40 33 29 26 24 23 21 24 52 60 62 69 70 78 83 84 96 104 102 103 89 85 106 112 109 115 132 130 135 134
208 205 207 111 130 124 89 76 56 107 78 38 25 26 34 47 52 50 42 32 22 12 10 13 14 18 21 31 50 49 54 66 64 69 75 81 85 79 81 86 86 97 115 119 120 135 155 173 163
87 156 129 92 86 96 99 65 39 116 25 3 6 20 34 40 43 39 28 18 9 2 5 5 6 11 21 22 31 39 44 48 44 41 33 35 62 79 84 95 120 139 158 159 154 174 185 188 179
112 77 97 90 78 84 83 86 54 40 15 31 44 49 49 43 37 30 21 13 5 3 358 359 3 5 10 17 25 30 35 36 31 27 23 23 33 32 26 330 294 238 214 194 196 195 191 193 188
130 116 78 80 81 84 85 81 67 22 23 46 57 57 50 42 32 25 15 10 6 4 358 359 359 4 6 14 17 24 26 17 11 22 15 5 7 0 349 323 300 257 249 228 222 206 199 199 193
113 116 101 64 81 93 94 58 51 3 37 58 58 54 46 40 28 22 17 10 3 359 354 356 360 2 8 13 10 14 20 14 9 8 3 359 348 330 301 282 305 280 254 247 231 215 206 210 199
130 125 99 25 23 133 139 22 350 354 40 53 53 49 43 36 30 23 13 7 1 356 354 356 359 2 7 4 0 7 14 11 5 359 355 349 338 325 312 267 267 289 279 250 233 220 210 207 205
161 186 215 50 22 328 234 253 33 24 44 41 43 40 35 31 25 17 11 5 2 359 1 0 1 0 2 2 355 4 5 5 357 350 352 343 330 320 309 287 275 289 275 246 222 223 216 212 215
192 234 251 259 25 8 217 247 18 34 42 35 36 33 27 21 17 11 8 5 3 2 3 4 3 2 358 355 356 359 2 3 354 347 345 339 330 318 301 291 288 278 264 243 232 224 222 214 209
252 257 264 263 6 10 233 248 300 0 18 21 24 25 22 16 7 2 3 4 6 7 6 6 7 6 360 355 356 357 357 355 351 343 338 331 323 313 307 295 284 273 253 250 241 233 224 216 202
278 262 275 284 307 304 252 266 297 340 15 14 13 16 16 10 5 6 4 6 7 9 7 7 6 5 4 357 348 340 334 330 330 333 330 327 317 308 304 304 291 274 251 249 242 241 219 212 197
259 273 281 288 296 272 263 269 298 355 47 29 15 12 8 4 5 6 5 7 7 5 2 0 0 359 359 352 341 326 312 308 317 328 323 321 316 308 299 290 280 277 262 250 240 232 228 218 208
273 272 280 286 301 243 266 257 231 149 77 44 29 19 12 5 360 1 1 2 4 3 358 352 350 350 352 350 346 342 332 327 325 320 309 312 307 302 292 281 275 267 256 248 240 232 232 226 220
285 307 279 279 278 269 258 271 217 188 114 37 23 14 8 3 358 358 357 356 357 356 354 351 348 348 350 349 344 339 325 315 310 307 301 304 301 298 292 282 275 265 255 251 247 239 236 231 226
300 311 269 263 263 269 244 251 238 177 238 314 359 5 0 357 354 354 352 350 349 351 352 350 348 351 350 347 341 329 321 311 306 303 300 300 299 297 295 286 276 266 259 256 256 255 243 232 232
302 280 241 229 238 251 239 236 254 193 248 285 339 356 354 352 350 350 349 349 349 351 352 351 348 349 349 345 339 329 321 317 311 306 298 295 292 292 294 292 279 267 260 253 251 251 250 243 237
328 297 277 254 240 256 178 234 251 129 107 286 326 339 346 348 349 350 348 347 347 348 349 349 347 345 345 342 337 328 320 313 305 301 295 292 289 286 287 288 281 268 261 256 249 247 248 248 241
301 292 279 283 280 292 237 241 155 117 98 32 350 340 342 343 344 343 342 341 341 343 344 347 344 342 340 338 332 327 325 314 305 300 297 289 285 283 282 278 276 269 258 254 248 243 244 243 244
253 226 307 281 281 274 253 238 214 175 273 341 340 340 337 334 333 334 336 339 338 339 341 342 339 338 337 332 329 324 324 319 310 302 297 291 288 291 286 275 272 268 257 249 245 243 242 239 238
351 193 217 247 279 274 268 258 248 214 271 309 326 324 324 327 328 329 332 336 337 336 335 336 337 336 333 332 327 321 319 316 312 305 298 296 294 294 289 281 273 266 256 247 241 243 239 237 236
167 192 236 244 263 276 284 282 83 229 281 306 315 317 318 321 323 325 328 331 333 335 334 334 334 335 333 330 326 320 319 317 313 310 303 298 295 290 287 279 272 264 254 246 240 240 239 235 235
249 240 230 252 256 252 273 279 95 54 321 313 317 317 320 323 321 321 324 327 332 334 334 332 331 331 329 326 322 321 319 317 315 312 307 302 296 289 287 279 268 262 253 247 241 240 239 233 233
Height
1523 1524 1525 1527 1526 1522 1523 1525 1525 1527 1528 1530 1531 1530 1529 1530 1532 1538 1538 1535 1535 1536 1538 1538 1540 1540 1541 1542 1542 1543 1543 1544 1544 1544 1545 1545 1545 1545 1545 1546 1546 1546 1546 1546 1546 1547 1547 1547 1547
1523 1525 1527 1527 1522 1522 1524 1525 1526 1528 1531 1532 1532 1532 1532 1534 1536 1537 1536 1535 1536 1537 1538 1539 1540 1541 1542 1542 1542 1543 1544 1544 1544 1545 1545 1545 1546 1546 1546 1546 1546 1546 1546 1546 1547 1547 1547 1548 1548
1524 1525 1528 1524 1522 1520 1524 1526 1528 1531 1532 1532 1533 1534 1535 1537 1538 1537 1536 1536 1537 1538 1538 1539 1540 1541 1542 1542 1543 1543 1544 1544 1544 1545 1545 1545 1546 1546 1546 1546 1546 1547 1547 1547 1547 1547 1548 1548 1548
1525 1527 1528 1524 1524 1526 1526 1529 1531 1531 1532 1533 1533 1535 1537 1539 1539 1538 1537 1537 1538 1538 1539 1540 1540 1541 1542 1542 1543 1543 1544 1544 1544 1545 1545 1545 1545 1546 1546 1546 1546 1547 1547 1547 1547 1548 1548 1548 1549
1525 1527 1524 1525 1526 1528 1530 1533 1533 1531 1532 1534 1534 1535 1538 1539 1538 1537 1537 1537 1538 1538 1539 1540 1540 1541 1541 1542 1542 1543 1543 1544 1544 1544 1545 1545 1545 1546 1546 1546 1546 1547 1547 1547 1547 1548 1548 1548 1549
1527 1525 1522 1523 1525 1529 1532 1534 1534 1533 1534 1536 1536 1536 1539 1540 1538 1537 1538 1538 1539 1539 1539 1540 1540 1541 1541 1541 1542 1542 1543 1543 1543 1544 1544 1544 1545 1545 1545 1546 1546 1546 1546 1547 1547 1548 1548 1548 1549
1527 1524 1522 1523 1526 1529 1534 1535 1535 1534 1535 1538 1538 1538 1539 1539 1538 1538 1538 1538 1539 1539 1539 1540 1540 1540 1541 1541 1541 1541 1542 1542 1542 1543 1543 1544 1544 1544 1545 1545 1545 1546 1546 1546 1547 1547 1548 1548 1549
1526 1526 1525 1526 1527 1530 1536 1537 1538 1538 1539 1541 1540 1541 1541 1540 1539 1539 1538 1538 1538 1539 1539 1539 1540 1540 1540 1540 1540 1540 1541 1541 1541 1542 1542 1543 1543 1543 1544 1544 1544 1545 1545 1546 1546 1547 1547 1548 1549
1527 1527 1525 1527 1529 1533 1537 1537 1540 1541 1541 1542 1543 1544 1543 1541 1539 1539 1538 1538 1538 1538 1538 1538 1539 1539 1539 1540 1540 1540 1540 1540 1540 1541 1541 1542 1542 1542 1543 1543 1543 1544 1545 1545 1546 1546 1547 1547 1548
1528 1526 1529 1533 1533 1535 1538 1539 1541 1541 1542 1543 1543 1543 1542 1541 1539 1538 1537 1537 1537 1537 1537 1537 1538 1538 1538 1539 1539 1539 1539 1539 1539 1540 1540 1540 1541 1541 1541 1541 1542 1543 1543 1544 1545 1545 1546 1547 1547
1530 1531 1535 1537 1537 1538 1539 1541 1542 1542 1542 1545 1545 1543 1542 1540 1539 1538 1538 1538 1537 1537 1537 1537 1536 1537 1537 1537 1538 1538 1538 1538 1538 1538 1538 1539 1539 1539 1540 1540 1541 1541 1542 1543 1543 1544 1545 1546 1546
1534 1537 1537 1539 1539 1540 1541 1542 1544 1544 1547 1546 1545 1544 1542 1540 1539 1539 1538 1537 1537 1536 1536 1536 1536 1536 1536 1536 1536 1536 1537 1537 1537 1537 1537 1537 1537 1537 1538 1538 1539 1539 1540 1541 1542 1543 1543 1544 1545
1534 1538 1540 1540 1541 1541 1542 1544 1545 1547 1547 1546 1545 1543 1542 1541 1540 1539 1538 1537 1536 1535 1535 1534 1534 1534 1534 1534 1535 1535 1535 1535 1535 1535 1535 1535 1536 1536 1536 1536 1537 1537 1538 1539 1540 1541 1541 1542 1543
1536 1538 1540 1541 1541 1542 1542 1544 1546 1547 1547 1545 1544 1543 1542 1541 1540 1538 1537 1536 1535 1534 1533 1533 1533 1532 1532 1532 1533 1533 1533 1533 1533 1534 1533 1534 1534 1534 1534 1534 1534 1535 1536 1536 1537 1538 1539 1540 1541
1537 1538 1539 1541 1541 1542 1542 1543 1546 1548 1547 1545 1544 1543 1542 1541 1539 1538 1537 1535 1534 1533 1533 1532 1531 1531 1531 1530 1531 1531 1531 1531 1531 1531 1531 1531 1531 1531 1531 1531 1532 1532 1533 1534 1535 1536 1537 1538 1538
1536 1534 1534 1540 1542 1542 1542 1540 1547 1547 1546 1545 1544 1543 1542 1541 1539 1538 1536 1535 1534 1533 1532 1531 1530 1530 1529 1529 1529 1529 1529 1529 1529 1529 1529 1529 1529 1529 1529 1529 1529 1530 1530 1531 1532 1533 1534 1535 1536
1532 1531 1532 1538 1542 1542 1540 1541 1547 1547 1545 1544 1544 1543 1542 1540 1539 1537 1536 1535 1533 1532 1531 1529 1529 1528 1527 1527 1527 1527 1527 1527 1527 1527 1527 1526 1526 1526 1526 1526 1526 1527 1527 1528 1529 1530 1531 1532 1533
1531 1532 1534 1536 1541 1542 1541 1543 1545 1546 1545 1544 1544 1543 1542 1540 1539 1537 1536 1534 1532 1531 1529 1528 1527 1526 1525 1525 1525 1524 1524 1525 1524 1524 1524 1524 1524 1523 1523 1523 1523 1523 1524 1525 1526 1527 1527 1528 1530
1537 1536 1535 1538 1543 1543 1541 1542 1543 1545 1545 1544 1543 1542 1541 1540 1539 1537 1535 1533 1531 1529 1528 1527 1525 1524 1523 1523 1522 1521 1521 1521 1521 1521 1521 1521 1521 1520 1520 1520 1520 1520 1521 1521 1522 1523 1524 1525 1526
1539 1538 1537 1539 1544 1544 1541 1541 1542 1543 1544 1544 1544 1543 1541 1539 1537 1535 1534 1532 1530 1528 1527 1526 1524 1523 1522 1521 1520 1519 1519 1518 1518 1518 1517 1517 1517 1517 1517 1516 1516 1517 1517 1518 1519 1520 1520 1521 1522
1540 1539 1539 1540 1543 1543 1542 1536 1539 1542 1544 1545 1544 1543 1542 1540 1538 1535 1533 1531 1529 1527 1525 1524 1523 1522 1521 1519 1518 1517 1516 1515 1515 1514 1514 1514 1513 1513 1513 1513 1513 1513 1513 1513 1514 1515 1516 1517 1518
1539 1542 1543 1543 1539 1533 1538 1526 1530 1538 1541 1543 1543 1542 1541 1539 1537 1535 1533 1530 1528 1526 1524 1522 1521 1520 1519 1517 1516 1515 1513 1512 1511 1511 1510 1510 1509 1509 1509 1509 1509 1509 1509 1510 1510 1511 1512 1513 1514
1543 1544 1543 1541 1538 1536 1535 1532 1524 1536 1538 1540 1542 1542 1540 1539 1537 1534 1532 1530 1528 1525 1523 1521 1520 1518 1516 1515 1513 1512 1511 1509 1509 1508 1507 1506 1506 1505 1505 1505 1505 1505 1505 1506 1506 1507 1508 1509 1510
1546 1543 1541 1540 1537 1533 1529 1529 1520 1532 1536 1539 1541 1541 1540 1538 1536 1534 1531 1529 1527 1524 1522 1520 1518 1516 1514 1512 1511 1509 1508 1506 1505 1504 1503 1502 1501 1501 1501 1500 1500 1500 1501 1501 1502 1502 1503 1504 1505
1545 1539 1532 1529 1527 1521 1531 1529 1527 1535 1539 1540 1541 1540 1539 1537 1535 1532 1530 1527 1525 1522 1520 1517 1515 1513 1511 1510 1508 1506 1505 1503 1502 1501 1499 1498 1497 1496 1496 1496 1496 1496 1496 1497 1497 1498 1498 1499 1500
1546 1543 1538 1531 1521 1517 1528 1525 1530 1539 1541 1541 1541 1540 1538 1536 1534 1531 1529 1526 1523 1521 1518 1516 1513 1511 1509 1507 1505 1504 1502 1500 1498 1497 1496 1494 1493 1492 1492 1491 1491 1491 1491 1492 1492 1493 1493 1494 1495
1545 1544 1547 1542 1537 1533 1520 1526 1535 1539 1539 1539 1539 1538 1536 1534 1532 1529 1527 1524 1522 1519 1517 1514 1511 1509 1506 1504 1502 1500 1498 1496 1495 1493 1492 1490 1489 1488 1487 1487 1486 1486 1486 1486 1487 1487 1488 1488 1489
1550 1548 1546 1543 1537 1524 1515 1518 1521 1533 1535 1537 1537 1536 1535 1533 1530 1528 1525 1522 1520 1517 1515 1512 1509 1507 1504 1502 1500 1497 1495 1493 1491 1489 1487 1486 1484 1484 1483 1482 1481 1481 1481 1481 1481 1482 1482 1483 1484
1550 1550 1546 1542 1541 1532 1519 1517 1530 1532 1535 1536 1536 1535 1533 1531 1528 1526 1523 1521 1518 1516 1513 1510 1507 1504 1501 1499 1496 1494 1491 1489 1487 1484 1482 1481 1479 1478 1477 1476 1475 1475 1475 1475 1476 1476 1477 1477 1478
1551 1549 1547 1543 1542 1540 1531 1526 1534 1535 1536 1536 1535 1534 1532 1529 1527 1524 1522 1519 1516 1513 1511 1508 1505 1501 1498 1495 1492 1490 1487 1485 1482 1480 1478 1476 1475 1473 1472 1471 1470 1469 1469 1470 1470 1470 1471 1471 1472